Time,TemperatureF,DewpointF,PressureIn,WindDirection,WindDirectionDegrees,WindSpeedMPH,WindSpeedGustMPH,Humidity,HourlyPrecipIn,Conditions,Clouds,dailyrainin,SolarRadiationWatts/m^2,SoftwareType,DateUTC
2013-05-31 00:01:00,51.0,31.0,30.01,SSW,210,10.0,17.0,47,-99.99,,,-99.99,-0.100000,,2013-05-31 06:01:00,
2013-05-31 00:11:00,50.0,31.0,30.01,SSW,211,11.0,18.0,47,-99.99,,,-99.99,-0.100000,,2013-05-31 06:11:00,
2013-05-31 00:21:00,50.0,30.0,30.01,SSW,211,11.0,16.0,46,-99.99,,,-99.99,-0.200000,,2013-05-31 06:21:00,
2013-05-31 00:31:00,50.0,30.0,30.02,SW,216,7.0,12.0,46,-99.99,,,-99.99,0.000000,,2013-05-31 06:31:00,
2013-05-31 00:41:00,49.0,31.0,30.03,NNW,336,4.0,6.0,49,-99.99,,,-99.99,-0.100000,,2013-05-31 06:41:00,
2013-05-31 00:51:00,49.0,31.0,30.03,WSW,250,3.0,6.0,50,-99.99,,,-99.99,-0.200000,,2013-05-31 06:51:00,
2013-05-31 01:01:00,49.0,31.0,30.03,SW,215,8.0,15.0,50,-99.99,,,-99.99,-0.100000,,2013-05-31 07:01:00,
2013-05-31 01:11:00,49.0,31.0,30.02,SSW,203,10.0,15.0,50,-99.99,,,-99.99,0.000000,,2013-05-31 07:11:00,
2013-05-31 01:21:00,48.0,31.0,30.03,SSW,202,10.0,16.0,52,-99.99,,,-99.99,-0.200000,,2013-05-31 07:21:00,
2013-05-31 01:32:00,47.0,31.0,30.03,SSW,203,10.0,17.0,52,-99.99,,,-99.99,0.000000,,2013-05-31 07:32:00,
2013-05-31 01:41:00,47.0,31.0,30.03,SSW,207,11.0,16.0,51,-99.99,,,-99.99,-0.100000,,2013-05-31 07:41:00,
2013-05-31 01:52:00,47.0,31.0,30.03,SSW,210,11.0,16.0,52,-99.99,,,-99.99,0.000000,,2013-05-31 07:52:00,
2013-05-31 02:01:00,47.0,30.0,30.03,SSW,204,12.0,18.0,51,-99.99,,,-99.99,-0.100000,,2013-05-31 08:01:00,
2013-05-31 02:11:00,47.0,31.0,30.04,SSW,208,11.0,16.0,52,-99.99,,,-99.99,0.100000,,2013-05-31 08:11:00,
2013-05-31 02:21:00,47.0,31.0,30.04,SSW,206,11.0,15.0,52,-99.99,,,-99.99,-0.100000,,2013-05-31 08:21:00,
2013-05-31 02:31:00,47.0,31.0,30.04,SSW,208,10.0,15.0,54,-99.99,,,-99.99,0.000000,,2013-05-31 08:31:00,
2013-05-31 02:41:00,47.0,31.0,30.05,SW,217,10.0,15.0,54,-99.99,,,-99.99,-0.100000,,2013-05-31 08:41:00,
2013-05-31 02:51:00,47.0,31.0,30.05,SW,219,10.0,13.0,54,-99.99,,,-99.99,-0.100000,,2013-05-31 08:51:00,
2013-05-31 03:01:00,46.0,32.0,30.05,SW,218,9.0,14.0,56,-99.99,,,-99.99,0.000000,,2013-05-31 09:01:00,
2013-05-31 03:11:00,46.0,32.0,30.06,SW,217,9.0,13.0,58,-99.99,,,-99.99,-0.100000,,2013-05-31 09:11:00,
2013-05-31 03:21:00,46.0,32.0,30.06,SSW,206,8.0,13.0,58,-99.99,,,-99.99,-0.100000,,2013-05-31 09:21:00,
2013-05-31 03:32:00,45.0,32.0,30.06,SSW,194,6.0,9.0,60,-99.99,,,-99.99,0.000000,,2013-05-31 09:32:00,
2013-05-31 03:42:00,44.0,32.0,30.06,South,187,7.0,9.0,61,-99.99,,,-99.99,-0.100000,,2013-05-31 09:42:00,
2013-05-31 03:53:00,44.0,32.0,30.07,South,191,8.0,10.0,60,-99.99,,,-99.99,0.100000,,2013-05-31 09:53:00,
2013-05-31 04:02:00,44.0,31.0,30.07,SSW,198,6.0,9.0,60,-99.99,,,-99.99,-0.200000,,2013-05-31 10:02:00,
2013-05-31 04:12:00,44.0,32.0,30.07,South,184,7.0,11.0,61,-99.99,,,-99.99,0.100000,,2013-05-31 10:12:00,
2013-05-31 04:22:00,45.0,32.0,30.07,SSW,197,10.0,16.0,59,-99.99,,,-99.99,-0.100000,,2013-05-31 10:22:00,
2013-05-31 04:32:00,44.0,32.0,30.08,South,188,6.0,9.0,61,-99.99,,,-99.99,0.200000,,2013-05-31 10:32:00,
2013-05-31 04:42:00,44.0,32.0,30.08,South,177,5.0,8.0,62,-99.99,,,-99.99,0.200000,,2013-05-31 10:42:00,
2013-05-31 04:52:00,44.0,32.0,30.08,South,190,7.0,10.0,62,-99.99,,,-99.99,-0.100000,,2013-05-31 10:52:00,
2013-05-31 05:01:00,44.0,32.0,30.08,SSW,204,6.0,8.0,62,-99.99,,,-99.99,-0.200000,,2013-05-31 11:01:00,
2013-05-31 05:11:00,44.0,33.0,30.09,SSW,199,7.0,9.0,63,-99.99,,,-99.99,0.300000,,2013-05-31 11:11:00,
2013-05-31 05:22:00,44.0,32.0,30.09,SSW,204,8.0,11.0,63,-99.99,,,-99.99,0.000000,,2013-05-31 11:22:00,
2013-05-31 05:32:00,44.0,33.0,30.10,SSW,198,7.0,10.0,65,-99.99,,,-99.99,0.000000,,2013-05-31 11:32:00,
2013-05-31 05:41:00,43.0,34.0,30.10,South,178,7.0,8.0,68,-99.99,,,-99.99,-0.100000,,2013-05-31 11:41:00,
2013-05-31 05:52:00,43.0,33.0,30.10,South,183,8.0,11.0,67,-99.99,,,-99.99,0.300000,,2013-05-31 11:52:00,
2013-05-31 06:01:00,42.0,33.0,30.11,South,178,8.0,12.0,69,-99.99,,,-99.99,1.100000,,2013-05-31 12:01:00,
2013-05-31 06:11:00,42.0,34.0,30.11,South,174,8.0,14.0,71,-99.99,,,-99.99,3.100000,,2013-05-31 12:11:00,
2013-05-31 06:21:00,42.0,34.0,30.12,South,182,7.0,9.0,73,-99.99,,,-99.99,6.400000,,2013-05-31 12:21:00,
2013-05-31 06:31:00,42.0,34.0,30.13,South,181,7.0,11.0,72,-99.99,,,-99.99,20.299999,,2013-05-31 12:31:00,
2013-05-31 06:41:00,42.0,34.0,30.13,South,185,8.0,11.0,72,-99.99,,,-99.99,37.400002,,2013-05-31 12:41:00,
2013-05-31 06:51:00,42.0,34.0,30.14,South,188,8.0,11.0,71,-99.99,,,-99.99,42.099998,,2013-05-31 12:51:00,
2013-05-31 07:01:00,42.0,34.0,30.14,SSW,194,9.0,12.0,71,-99.99,,,-99.99,64.599998,,2013-05-31 13:01:00,
2013-05-31 07:11:00,42.0,34.0,30.15,South,188,9.0,12.0,72,-99.99,,,-99.99,136.199997,,2013-05-31 13:11:00,
2013-05-31 07:21:00,43.0,34.0,30.15,South,183,8.0,11.0,72,-99.99,,,-99.99,76.400002,,2013-05-31 13:21:00,
2013-05-31 07:32:00,43.0,34.0,30.15,South,185,9.0,12.0,71,-99.99,,,-99.99,141.699997,,2013-05-31 13:32:00,
2013-05-31 07:42:00,43.0,35.0,30.16,South,191,10.0,13.0,70,-99.99,,,-99.99,160.100006,,2013-05-31 13:42:00,
2013-05-31 07:51:00,44.0,35.0,30.16,SSW,197,9.0,13.0,70,-99.99,,,-99.99,158.100006,,2013-05-31 13:51:00,
2013-05-31 08:02:00,44.0,35.0,30.17,SSW,196,10.0,16.0,70,-99.99,,,-99.99,268.200012,,2013-05-31 14:02:00,
2013-05-31 08:11:00,45.0,36.0,30.17,SSW,199,9.0,17.0,70,-99.99,,,-99.99,342.899994,,2013-05-31 14:11:00,
2013-05-31 08:21:00,44.0,35.0,30.17,SSW,193,12.0,16.0,69,-99.99,,,-99.99,273.899994,,2013-05-31 14:21:00,
2013-05-31 08:31:00,45.0,36.0,30.17,SSW,195,11.0,15.0,68,-99.99,,,-99.99,401.799988,,2013-05-31 14:31:00,
2013-05-31 08:41:00,46.0,36.0,30.18,SSW,199,12.0,17.0,68,-99.99,,,-99.99,476.200012,,2013-05-31 14:41:00,
2013-05-31 08:52:00,47.0,37.0,30.18,SW,215,9.0,12.0,68,-99.99,,,-99.99,491.799988,,2013-05-31 14:52:00,
2013-05-31 09:01:00,47.0,37.0,30.19,SSW,202,11.0,16.0,68,-99.99,,,-99.99,313.799988,,2013-05-31 15:01:00,
2013-05-31 09:11:00,47.0,38.0,30.19,SSW,197,11.0,18.0,68,-99.99,,,-99.99,633.299988,,2013-05-31 15:11:00,
2013-05-31 09:21:00,48.0,38.0,30.19,SSW,199,11.0,17.0,66,-99.99,,,-99.99,588.500000,,2013-05-31 15:21:00,
2013-05-31 09:33:00,48.0,37.0,30.19,SSW,204,12.0,19.0,63,-99.99,,,-99.99,593.299988,,2013-05-31 15:33:00,
2013-05-31 09:42:00,49.0,37.0,30.19,SSW,209,14.0,18.0,62,-99.99,,,-99.99,631.700012,,2013-05-31 15:42:00,
2013-05-31 09:53:00,49.0,37.0,30.20,SSW,204,13.0,19.0,62,-99.99,,,-99.99,661.299988,,2013-05-31 15:53:00,
2013-05-31 10:03:00,50.0,37.0,30.20,SSW,202,13.0,18.0,60,-99.99,,,-99.99,692.599976,,2013-05-31 16:03:00,
2013-05-31 10:12:00,50.0,37.0,30.20,SSW,208,14.0,19.0,61,-99.99,,,-99.99,722.700012,,2013-05-31 16:12:00,
2013-05-31 10:22:00,50.0,37.0,30.20,SSW,207,14.0,19.0,61,-99.99,,,-99.99,749.900024,,2013-05-31 16:22:00,
2013-05-31 10:33:00,51.0,37.0,30.20,SW,218,11.0,17.0,58,-99.99,,,-99.99,780.400024,,2013-05-31 16:33:00,
2013-05-31 10:41:00,51.0,36.0,30.20,SSW,199,13.0,20.0,57,-99.99,,,-99.99,805.000000,,2013-05-31 16:41:00,
2013-05-31 10:52:00,51.0,37.0,30.20,SSW,197,14.0,19.0,57,-99.99,,,-99.99,830.000000,,2013-05-31 16:52:00,
2013-05-31 11:02:00,52.0,37.0,30.20,SSW,198,14.0,18.0,56,-99.99,,,-99.99,855.000000,,2013-05-31 17:02:00,
2013-05-31 11:12:00,52.0,37.0,30.20,SW,220,12.0,19.0,55,-99.99,,,-99.99,879.000000,,2013-05-31 17:12:00,
2013-05-31 11:22:00,53.0,36.0,30.20,SSW,209,13.0,20.0,54,-99.99,,,-99.99,903.000000,,2013-05-31 17:22:00,
2013-05-31 11:31:00,53.0,36.0,30.20,SSW,212,14.0,19.0,52,-99.99,,,-99.99,923.000000,,2013-05-31 17:31:00,
2013-05-31 11:42:00,54.0,36.0,30.20,SSW,205,13.0,20.0,51,-99.99,,,-99.99,942.000000,,2013-05-31 17:42:00,
2013-05-31 11:52:00,54.0,36.0,30.21,SSW,206,11.0,15.0,51,-99.99,,,-99.99,960.000000,,2013-05-31 17:52:00,
2013-05-31 12:01:00,54.0,36.0,30.21,SW,222,12.0,18.0,50,-99.99,,,-99.99,974.000000,,2013-05-31 18:01:00,
2013-05-31 12:11:00,55.0,36.0,30.21,SSW,202,14.0,22.0,49,-99.99,,,-99.99,990.000000,,2013-05-31 18:11:00,
2013-05-31 12:21:00,55.0,37.0,30.21,SSW,204,13.0,17.0,50,-99.99,,,-99.99,1003.000000,,2013-05-31 18:21:00,
2013-05-31 12:31:00,56.0,36.0,30.21,SW,222,10.0,17.0,47,-99.99,,,-99.99,1016.000000,,2013-05-31 18:31:00,
2013-05-31 12:41:00,56.0,36.0,30.21,SW,214,12.0,19.0,47,-99.99,,,-99.99,1027.000000,,2013-05-31 18:41:00,
2013-05-31 12:52:00,56.0,35.0,30.21,SSW,197,12.0,19.0,45,-99.99,,,-99.99,1036.000000,,2013-05-31 18:52:00,
2013-05-31 13:01:00,56.0,35.0,30.21,SSW,205,14.0,21.0,44,-99.99,,,-99.99,1044.000000,,2013-05-31 19:01:00,
2013-05-31 13:11:00,57.0,34.0,30.21,SSW,209,13.0,19.0,42,-99.99,,,-99.99,1049.000000,,2013-05-31 19:11:00,
2013-05-31 13:21:00,57.0,33.0,30.20,SSW,205,15.0,21.0,40,-99.99,,,-99.99,1056.000000,,2013-05-31 19:21:00,
2013-05-31 13:31:00,58.0,34.0,30.20,SW,218,12.0,15.0,41,-99.99,,,-99.99,1060.000000,,2013-05-31 19:31:00,
2013-05-31 13:41:00,57.0,33.0,30.20,SSW,202,14.0,20.0,40,-99.99,,,-99.99,1057.000000,,2013-05-31 19:41:00,
2013-05-31 13:52:00,57.0,31.0,30.20,SSW,208,12.0,19.0,36,-99.99,,,-99.99,1059.000000,,2013-05-31 19:52:00,
2013-05-31 14:01:00,58.0,31.0,30.20,SSW,203,14.0,21.0,36,-99.99,,,-99.99,1055.000000,,2013-05-31 20:01:00,
2013-05-31 14:11:00,58.0,32.0,30.20,SW,220,12.0,17.0,37,-99.99,,,-99.99,1052.000000,,2013-05-31 20:11:00,
2013-05-31 14:22:00,59.0,34.0,30.20,SSW,204,11.0,17.0,38,-99.99,,,-99.99,1047.000000,,2013-05-31 20:22:00,
2013-05-31 14:31:00,59.0,34.0,30.20,SW,220,10.0,14.0,38,-99.99,,,-99.99,1040.000000,,2013-05-31 20:31:00,
2013-05-31 14:41:00,60.0,32.0,30.20,SSW,201,12.0,17.0,35,-99.99,,,-99.99,1031.000000,,2013-05-31 20:41:00,
2013-05-31 14:51:00,60.0,32.0,30.20,SSW,204,14.0,20.0,35,-99.99,,,-99.99,1022.000000,,2013-05-31 20:51:00,
2013-05-31 15:01:00,61.0,32.0,30.20,SW,227,12.0,17.0,34,-99.99,,,-99.99,1013.000000,,2013-05-31 21:01:00,
2013-05-31 15:11:00,61.0,32.0,30.19,SSW,209,11.0,17.0,33,-99.99,,,-99.99,1002.000000,,2013-05-31 21:11:00,
2013-05-31 15:22:00,62.0,32.0,30.19,SSW,211,13.0,19.0,32,-99.99,,,-99.99,985.000000,,2013-05-31 21:22:00,
2013-05-31 15:32:00,62.0,32.0,30.19,SSW,198,13.0,19.0,32,-99.99,,,-99.99,970.000000,,2013-05-31 21:32:00,
2013-05-31 15:42:00,62.0,31.0,30.19,SW,220,10.0,19.0,32,-99.99,,,-99.99,954.000000,,2013-05-31 21:42:00,
2013-05-31 15:53:00,62.0,32.0,30.18,SSW,207,12.0,19.0,32,-99.99,,,-99.99,937.000000,,2013-05-31 21:53:00,
2013-05-31 16:02:00,63.0,31.0,30.18,SSW,204,15.0,21.0,29,-99.99,,,-99.99,919.000000,,2013-05-31 22:02:00,
2013-05-31 16:12:00,63.0,31.0,30.17,SW,215,14.0,21.0,30,-99.99,,,-99.99,899.000000,,2013-05-31 22:12:00,
2013-05-31 16:22:00,63.0,30.0,30.17,SSW,202,13.0,17.0,28,-99.99,,,-99.99,878.000000,,2013-05-31 22:22:00,
2013-05-31 16:33:00,64.0,30.0,30.17,SW,214,11.0,16.0,28,-99.99,,,-99.99,858.000000,,2013-05-31 22:33:00,
2013-05-31 16:41:00,64.0,30.0,30.17,SSW,201,14.0,22.0,28,-99.99,,,-99.99,836.000000,,2013-05-31 22:41:00,
2013-05-31 16:52:00,64.0,30.0,30.16,SSW,193,15.0,22.0,27,-99.99,,,-99.99,817.000000,,2013-05-31 22:52:00,
2013-05-31 17:02:00,64.0,30.0,30.16,SSW,198,13.0,18.0,27,-99.99,,,-99.99,824.000000,,2013-05-31 23:02:00,
2013-05-31 17:12:00,64.0,29.0,30.16,SSW,204,15.0,20.0,26,-99.99,,,-99.99,460.200012,,2013-05-31 23:12:00,
2013-05-31 17:21:00,64.0,29.0,30.16,SSW,202,12.0,20.0,27,-99.99,,,-99.99,414.100006,,2013-05-31 23:21:00,
2013-05-31 17:32:00,65.0,30.0,30.16,SSW,201,15.0,22.0,27,-99.99,,,-99.99,817.000000,,2013-05-31 23:32:00,
2013-05-31 17:42:00,65.0,29.0,30.16,SSW,208,15.0,22.0,26,-99.99,,,-99.99,758.700012,,2013-05-31 23:42:00,
2013-05-31 17:52:00,65.0,30.0,30.16,SSW,204,13.0,19.0,27,-99.99,,,-99.99,660.299988,,2013-05-31 23:52:00,
2013-05-31 18:01:00,64.0,30.0,30.16,SSW,203,15.0,21.0,27,-99.99,,,-99.99,656.599976,,2013-06-01 00:01:00,
2013-05-31 18:11:00,64.0,30.0,30.16,SSW,204,15.0,23.0,28,-99.99,,,-99.99,610.200012,,2013-06-01 00:11:00,
2013-05-31 18:21:00,64.0,29.0,30.15,SSW,204,16.0,24.0,27,-99.99,,,-99.99,568.900024,,2013-06-01 00:21:00,
2013-05-31 18:31:00,64.0,29.0,30.15,SSW,204,15.0,21.0,27,-99.99,,,-99.99,500.799988,,2013-06-01 00:31:00,
2013-05-31 18:41:00,63.0,28.0,30.16,SSW,211,15.0,23.0,26,-99.99,,,-99.99,107.099998,,2013-06-01 00:41:00,
2013-05-31 18:51:00,62.0,28.0,30.16,SSW,211,13.0,18.0,27,-99.99,,,-99.99,236.899994,,2013-06-01 00:51:00,
2013-05-31 19:01:00,63.0,27.0,30.15,SSW,211,16.0,24.0,26,-99.99,,,-99.99,423.000000,,2013-06-01 01:01:00,
2013-05-31 19:11:00,63.0,28.0,30.15,SSW,205,15.0,22.0,26,-99.99,,,-99.99,366.500000,,2013-06-01 01:11:00,
2013-05-31 19:21:00,63.0,28.0,30.16,SSW,206,15.0,22.0,26,-99.99,,,-99.99,341.399994,,2013-06-01 01:21:00,
2013-05-31 19:31:00,62.0,28.0,30.16,SSW,210,15.0,24.0,26,-99.99,,,-99.99,282.299988,,2013-06-01 01:31:00,
2013-05-31 19:41:00,62.0,27.0,30.16,SSW,203,14.0,20.0,26,-99.99,,,-99.99,274.899994,,2013-06-01 01:41:00,
2013-05-31 19:52:00,63.0,28.0,30.16,SSW,206,13.0,20.0,27,-99.99,,,-99.99,227.399994,,2013-06-01 01:52:00,
2013-05-31 20:01:00,62.0,28.0,30.16,SSW,209,15.0,23.0,26,-99.99,,,-99.99,204.199997,,2013-06-01 02:01:00,
2013-05-31 20:11:00,62.0,28.0,30.17,SSW,212,12.0,19.0,28,-99.99,,,-99.99,105.400002,,2013-06-01 02:11:00,
2013-05-31 20:21:00,61.0,28.0,30.17,SSW,211,12.0,19.0,28,-99.99,,,-99.99,73.400002,,2013-06-01 02:21:00,
2013-05-31 20:31:00,61.0,28.0,30.17,SSW,208,11.0,15.0,29,-99.99,,,-99.99,114.000000,,2013-06-01 02:31:00,
2013-05-31 20:41:00,60.0,29.0,30.17,SSW,207,11.0,17.0,30,-99.99,,,-99.99,72.400002,,2013-06-01 02:41:00,
2013-05-31 20:51:00,60.0,28.0,30.17,SSW,203,13.0,17.0,29,-99.99,,,-99.99,26.700001,,2013-06-01 02:51:00,
2013-05-31 21:01:00,60.0,28.0,30.18,SSW,207,13.0,17.0,30,-99.99,,,-99.99,19.000000,,2013-06-01 03:01:00,
2013-05-31 21:11:00,59.0,29.0,30.18,SSW,210,12.0,17.0,31,-99.99,,,-99.99,11.600000,,2013-06-01 03:11:00,
2013-05-31 21:21:00,58.0,29.0,30.18,SSW,207,10.0,16.0,33,-99.99,,,-99.99,5.200000,,2013-06-01 03:21:00,
2013-05-31 21:33:00,58.0,30.0,30.19,SSW,207,10.0,15.0,34,-99.99,,,-99.99,1.700000,,2013-06-01 03:33:00,
2013-05-31 21:43:00,57.0,31.0,30.20,SSW,210,9.0,14.0,36,-99.99,,,-99.99,0.200000,,2013-06-01 03:43:00,
2013-05-31 21:53:00,57.0,31.0,30.20,SW,214,10.0,14.0,36,-99.99,,,-99.99,0.000000,,2013-06-01 03:53:00,
2013-05-31 22:02:00,56.0,31.0,30.20,SSW,208,9.0,11.0,38,-99.99,,,-99.99,-0.200000,,2013-06-01 04:02:00,
2013-05-31 22:12:00,56.0,31.0,30.21,SSW,211,9.0,13.0,38,-99.99,,,-99.99,-0.100000,,2013-06-01 04:12:00,
2013-05-31 22:22:00,56.0,29.0,30.22,SW,215,10.0,15.0,35,-99.99,,,-99.99,-0.100000,,2013-06-01 04:22:00,
2013-05-31 22:33:00,56.0,28.0,30.22,SSW,213,10.0,16.0,34,-99.99,,,-99.99,-0.100000,,2013-06-01 04:33:00,
2013-05-31 22:42:00,56.0,29.0,30.22,SSW,212,10.0,14.0,36,-99.99,,,-99.99,0.000000,,2013-06-01 04:42:00,
2013-05-31 22:53:00,55.0,29.0,30.22,SSW,207,11.0,15.0,37,-99.99,,,-99.99,0.000000,,2013-06-01 04:53:00,
2013-05-31 23:02:00,54.0,28.0,30.23,SSW,207,10.0,14.0,36,-99.99,,,-99.99,-0.100000,,2013-06-01 05:02:00,
2013-05-31 23:12:00,54.0,27.0,30.23,SSW,205,11.0,14.0,35,-99.99,,,-99.99,-0.200000,,2013-06-01 05:12:00,
2013-05-31 23:22:00,54.0,26.0,30.23,SSW,211,9.0,12.0,34,-99.99,,,-99.99,-0.100000,,2013-06-01 05:22:00,
2013-05-31 23:32:00,54.0,25.0,30.23,SSW,208,10.0,15.0,33,-99.99,,,-99.99,0.000000,,2013-06-01 05:32:00,
2013-05-31 23:42:00,54.0,25.0,30.23,SSW,212,10.0,17.0,32,-99.99,,,-99.99,0.000000,,2013-06-01 05:42:00,
2013-05-31 23:52:00,54.0,24.0,30.23,SSW,209,10.0,15.0,31,-99.99,,,-99.99,-0.100000,,2013-06-01 05:52:00,